Regional Weather Roundup
Issued by NWS

Home | Current Version | Previous Version | Text Only | Print | Product List | Glossary On
Versions: 1 2 3 4 5 6 7 8 9 10 11 12 13 14 15 16 17 18 19 20 21 22 23 24 25 26 27 28 29 30 31 32 33 34 35 36 37 38 39 40 41 42 43 44 45 46 47 48 49 50
000
ASUS43 KMPX 232101
RWRMN
WEATHER ROUNDUP FOR MINNESOTA
NATIONAL WEATHER SERVICE TWIN CITIES/CHANHASSEN MN
400 PM CDT TUE MAY 23 2017


NOTE: "FAIR" INDICATES FEW OR NO CLOUDS BELOW 12,000 FEET WITH NO
SIGNIFICANT WEATHER AND/OR OBSTRUCTIONS TO VISIBILITY. N/A MEANS
CURRENT SKY AND/OR WEATHER CONDITIONS ARE NOT AVAILABLE.

MNZ060>063-068>070-232200-
   Twin Cities Metro

CITY           SKY/WX    TMP DP  RH WIND       PRES   REMARKS
TWIN CITIES    CLOUDY    60  45  57 NE10      29.80S
ST PAUL        CLOUDY    59  45  59 NE10      29.81S
CRYSTAL        CLOUDY    59  41  51 NE8G17    29.79S
BLAINE         PTSUNNY   63  45  51 NE13G21   29.80S
LAKEVILLE      CLOUDY    55  48  76 NE7       29.79F
EDEN PRAIRIE   LGT RAIN  59  49  69 N5        29.79F
SOUTH ST PAUL  MOSUNNY   60  44  56 E7        29.80S
LAKE ELMO      FAIR      59  50  72 E6        29.81F
$$
MNZ001>005-007-008-013>017-022>024-027-028-232200-
   Northwest Minnesota

CITY           SKY/WX    TMP DP  RH WIND       PRES   REMARKS
BEMIDJI        CLOUDY    52  45  78 NE14      29.94S
HALLOCK        PTSUNNY   64  37  36 NE12G22   29.98F
ROSEAU         MOSUNNY   63  43  48 NE20      29.98S
WARROAD        SUNNY     59  46  63 E10       29.99F
CROOKSTON      CLOUDY    57  43  58 NE12G18   29.97S
FOSSTON        PTSUNNY   54  50  87 N12       29.96S
DETROIT LAKES  PTSUNNY   55  45  67 N12G18    29.94R
MOORHEAD       CLOUDY    54  45  71 NE18G24   29.96S
PARK RAPIDS    CLOUDY    54  42  64 N16       29.91R
MAHNOMEN       CLOUDY    53  46  78 NE15      29.95S
$$
MNZ006-009>011-018-025>026-232200-
   North Central Minnesota

CITY           SKY/WX    TMP DP  RH WIND       PRES   REMARKS
BAUDETTE       CLOUDY    56  40  55 NE15G23   29.96S
FLAG ISLAND    MOSUNNY   63  34  34 NE13G20   29.96F
INTL FALLS     CLOUDY    54  42  64 NE12G21   29.94F
WASKISH        CLOUDY    54  45  71 NE7       29.95F
BIG FORK       CLOUDY    52  45  76 NE6G17    29.93S
LONGVILLE      LGT RAIN  52  48  87 N9        29.90S
GRAND RAPIDS   CLOUDY    53  47  79 N9G17     29.91R
CRANE LAKE     CLOUDY    52  45  76 NE3       29.95S
ORR            CLOUDY    54  43  66 CALM      29.90F
COOK           CLOUDY    54  45  71 N9        29.92S
WALKER         CLOUDY    52  45  76 N9        29.91S
$$
MNZ012-019>021-037-232200-
   Northeast Minnesota

CITY           SKY/WX    TMP DP  RH WIND       PRES   REMARKS
DULUTH         PTSUNNY   56  47  71 E10       29.86S
ELY            CLOUDY    52  43  71 NE7       29.90F
HIBBING        CLOUDY    53  45  74 N14G23    29.88S
EVELETH        CLOUDY    53  44  73 NE12G20   29.90R
DULUTH HARBOR  CLOUDY    46  45  93 NE16      29.90S FOG
TWO HARBORS    DRIZZLE   54  48  82 E9        29.88S
SILVER BAY     CLOUDY    48  46  93 E6        29.88S
GRAND MARAIS     N/A     47  45  93 NE5       29.90S
G MARAIS ARPRT CLOUDY    48  41  76 NE7       29.89F
$$
MNZ029>031-032-039>041-046>048-054>057-064-232200-
   West Central Minnesota

CITY           SKY/WX    TMP DP  RH WIND       PRES   REMARKS
FERGUS FALLS   PTSUNNY   55  46  71 NE10G16   29.89S
WHEATON        CLOUDY    55  46  71 NW14G22   29.91F
MORRIS         PTSUNNY   57  46  67 N12       29.87R
ALEXANDRIA     CLOUDY    56  45  66 NE7       29.88S
ELBOW LAKE     CLOUDY    56  46  69 N14G20    29.89S
WADENA         CLOUDY    54  45  71 N15G24    29.88S
GLENWOOD       MOSUNNY   55  45  67 N12G17    29.87S
APPLETON       LGT RAIN  55  46  71 N13       29.87R
BENSON         PTSUNNY   59  45  58 NE13      29.87S
ORTONVILLE     PTSUNNY   54  48  82 N14       29.89R
MADISON        CLOUDY    57  48  72 N12       29.87S
WILLMAR        FAIR      59  46  63 NE16      29.86S
$$
MNZ033>034-036-042>043-049>051-058-059-232200-
   Central Minnesota

CITY           SKY/WX    TMP DP  RH WIND       PRES   REMARKS
ST CLOUD       CLOUDY    57  47  69 N6        29.84R
SAUK CENTRE    CLOUDY    57  42  58 N8        29.86R
PAYNESVILLE    CLOUDY    53  46  76 N8        29.85S
AITKIN         CLOUDY    57  45  62 N13       29.85S
PINE RIVER     LGT RAIN  52  48  87 N10       29.93R
BRAINERD       CLOUDY    58  41  53 NE13      29.87S
STAPLES        PTSUNNY   57  39  51 N9        29.88S
LONG PRAIRIE   CLOUDY    55  41  58 N10       29.87R
LITTLE FALLS   CLOUDY    55  41  58 N5        29.86R
LITCHFIELD     PTSUNNY   55  50  82 NW7       29.84S
BUFFALO        CLOUDY    58  44  58 N12G17    29.82S
MAPLE LAKE     PTSUNNY   60  47  62 N10       29.83S
HUTCHINSON     CLOUDY    58  47  69 N8        29.83S
$$
MNZ037-044-045-052-053-232200-
   East Central Minnesota

CITY           SKY/WX    TMP DP  RH WIND       PRES   REMARKS
PRINCETON      PTSUNNY   59  46  63 N10       29.84R
MORA           PTSUNNY   57  45  62 NE7       29.85F
CAMBRIDGE      CLOUDY    61  46  59 N8        29.81S
RUSH CITY      CLOUDY    57  47  68 N10       29.83S
MOOSE LAKE     CLOUDY    57  43  58 NE8       29.84S
HINCKLEY       CLOUDY    57  45  62 NE5       29.84S
CLOQUET        PTSUNNY   55  43  62 E9        29.86S
MCGREGOR       CLOUDY    55  45  67 N9        29.87S
$$
MNZ071>073-080-081-089-090-097-098-232200-
   Southwest Minnesota

CITY           SKY/WX    TMP DP  RH WIND       PRES   REMARKS
MONTEVIDEO     PTSUNNY   57  48  72 E13       29.85S
CANBY          CLOUDY    54  47  78 N9        29.88R
MARSHALL       PTSUNNY   54  47  77 N15       29.84F
REDWOOD FALLS  CLOUDY    59  42  53 VRB7G17   29.82S
OLIVIA         CLOUDY    59  43  55 N10G17    29.83S
PIPESTONE      LGT RAIN  52  45  76 NE7       29.85S
WINDOM         CLOUDY    55  46  71 N12       29.82S
WORTHINGTON    CLOUDY    54  47  77 N16       29.83F
JACKSON        CLOUDY    54  45  71 VRB10G17  29.81S
TRACY          CLOUDY    53  48  84 N9        29.84S
SLAYTON        RAIN      49  45  85 N16       29.85S
$$
MNZ065>067-074>077-082>085-091>093-232200-
   South Central Minnesota

CITY           SKY/WX    TMP DP  RH WIND       PRES   REMARKS
MANKATO        LGT RAIN  54  47  77 N8        29.81S
NEW ULM        CLOUDY    55  45  67 NE6       29.81S
ST JAMES       CLOUDY    55  48  76 NW13      29.82S
FAIRMONT       CLOUDY    56  48  74 N15       29.80S
GLENCOE        CLOUDY    61  49  65 N10       29.80S
FARIBAULT      PTSUNNY   55  48  76 N7        29.80S
OWATONNA       RAIN      54  48  82 NE8       29.79S
WASECA         LGT RAIN  52  48  87 N6        29.81S
ALBERT LEA     LGT RAIN  52  52 100 CALM      29.78F
$$
MNZ078>079-086>088-094>096-232200-
   Southeast Minnesota

CITY           SKY/WX    TMP DP  RH WIND       PRES   REMARKS
ROCHESTER      LGT RAIN  50  49  96 N12       29.77F FOG
RED WING       LGT RAIN  55  48  76 NE5       29.78S
STANTON        CLOUDY    56  50  79 N10       29.78S
DODGE CENTER   LGT RAIN  50  48  93 N10       29.78S
WINONA         CLOUDY    55  48  76 N5        29.75F
AUSTIN         DRIZZLE   54  46  76 NE10      29.77S
PRESTON        CLOUDY    50  47  90 N9        29.76S
$$
ABBREVIATIONS USED IN REMARKS
   TC - TEMPERATURES IN CELSIUS
  WCI - WIND CHILL INDEX
   HX - HEAT INDEX
  VSB - VISIBILITY
$$



USA.gov is the U.S. government's official web portal to all federal, state and local government web resources and services.